Weather History for Merrill, WI

Change the Weather History Date:

Monday, August 26, 2013

  Actual Average Record
Temperature  
Mean Temperature 76 °F -  
Max Temperature 86 °F 77 °F 97 °F (1909)
Min Temperature 66 °F 53 °F 35 °F (1915)
Cooling Degree Days 11    
Growing Degree Days 26 (Base 50)    
Moisture  
Dew Point 71 °F    
Average Humidity 84    
Maximum Humidity 100    
Minimum Humidity 64    
Precipitation  
Precipitation 1.60 in - - ()
Sea Level Pressure  
Sea Level Pressure 30.01 in    
Wind  
Wind Speed 5 mph (SW)    
Max Wind Speed 13 mph    
Max Gust Speed 24 mph    
Visibility 9 miles    
Events Rain , Thunderstorm    
Averages and records for this station are not official NWS values.
T = Trace of Precipitation, MM = Missing Value Source: NWS Daily Summary

Daily Weather History Graph

Daily Weather History Graph

Search for Another Location

Airport:

Trip Planner

Search our weather history database for the weather conditions in past years. The results will help you decide how hot, cold, wet, or windy it might be!

Date:

Astronomy

Aug. 26, 2013 Rise Set
Actual Time 6:13 AM CDT 7:46 PM CDT
Civil Twilight 5:42 AM CDT 8:17 PM CDT
Nautical Twilight 5:05 AM CDT 8:54 PM CDT
Astronomical Twilight 4:24 AM CDT 9:34 PM CDT
Moon 10:37 PM CDT (8/26) 12:34 PM CDT (8/26)
Length of Visible Light 14h 34m
Length of Day
13h 32m
Waning Gibbous, 66% of the Moon is Illuminated
Aug 26
Waning Gibbous
Aug 28
Last Quarter
Sep 5
New
Sep 12
First Quarter
Sep 19
Full

Hourly Weather History & Observations

Time (CDT) Temp. Heat Index Dew Point Humidity Pressure Visibility Wind Dir Wind Speed Gust Speed Precip Events Conditions
12:15 AM 76.3 °F - 70.9 °F 83% 30.04 in 10.0 mi WSW 4.6 mph - N/A   Clear
12:35 AM 75.7 °F - 70.9 °F 85% 30.05 in 10.0 mi SW 4.6 mph - N/A   Clear
12:55 AM 75.6 °F - 70.9 °F 85% 30.05 in 10.0 mi SW 3.5 mph - N/A   Clear
1:15 AM 75.2 °F - 70.7 °F 86% 30.03 in 10.0 mi SSW 3.5 mph - N/A   Clear
1:35 AM 74.7 °F - 70.7 °F 87% 30.02 in 10.0 mi SW 3.5 mph - N/A   Clear
1:55 AM 74.7 °F - 70.3 °F 86% 30.00 in 10.0 mi SW 6.9 mph - N/A   Clear
2:15 AM 75.2 °F - 70.2 °F 84% 30.00 in 10.0 mi SW 6.9 mph - N/A   Clear
2:35 AM 74.8 °F - 70.0 °F 85% 30.01 in 10.0 mi SW 5.8 mph - N/A   Clear
2:55 AM 74.7 °F - 69.8 °F 85% 30.01 in 10.0 mi SW 4.6 mph - N/A   Clear
3:15 AM 74.7 °F - 69.8 °F 85% 30.01 in 10.0 mi SW 5.8 mph - N/A   Clear
3:35 AM 74.7 °F - 69.6 °F 84% 30.03 in 10.0 mi WSW 3.5 mph - N/A   Clear
3:55 AM 74.3 °F - 69.4 °F 85% 30.03 in 10.0 mi Calm Calm - N/A   Mostly Cloudy
4:15 AM 74.5 °F - 69.6 °F 85% 30.04 in 10.0 mi Calm Calm - N/A   Overcast
4:35 AM 74.5 °F - 68.0 °F 80% 30.07 in 10.0 mi NE 12.7 mph 21.9 mph N/A   Overcast
4:55 AM 73.6 °F - 64.4 °F 73% 30.07 in 10.0 mi ENE 11.5 mph 24.2 mph N/A Thunderstorm Overcast
5:15 AM 71.4 °F - 64.6 °F 79% 30.11 in 10.0 mi NNE 11.5 mph 19.6 mph N/A Rain , Thunderstorm Light Thunderstorms and Rain
5:35 AM 67.3 °F - 66.4 °F 97% 30.10 in 2.0 mi Calm Calm - 0.37 in Rain , Thunderstorm Heavy Thunderstorms and Rain
5:55 AM 67.1 °F - 66.7 °F 99% 30.12 in 1.8 mi Calm Calm - 0.80 in Rain , Thunderstorm Heavy Thunderstorms and Rain
6:15 AM 67.1 °F - 67.1 °F 100% 30.10 in 1.2 mi ESE 6.9 mph - 0.47 in Rain , Thunderstorm Heavy Thunderstorms and Rain
6:35 AM 66.9 °F - 66.7 °F 99% 30.10 in 1.5 mi South 5.8 mph - 0.57 in Rain , Thunderstorm Heavy Thunderstorms and Rain
6:55 AM 66.7 °F - 66.6 °F 99% 30.07 in 7.0 mi South 6.9 mph - 0.64 in Rain , Thunderstorm Rain
7:15 AM 67.1 °F - 66.7 °F 99% 30.06 in 5.0 mi South 11.5 mph 16.1 mph 0.12 in Rain , Thunderstorm Heavy Thunderstorms and Rain
7:35 AM 67.5 °F - 66.6 °F 97% 30.07 in 10.0 mi SSW 8.1 mph - 0.12 in Rain , Thunderstorm Light Thunderstorms and Rain
7:55 AM 67.5 °F - 66.6 °F 97% 30.04 in 10.0 mi South 10.4 mph - 0.13 in Rain , Thunderstorm Light Thunderstorms and Rain
8:15 AM 67.8 °F - 66.7 °F 96% 30.08 in 10.0 mi WSW 9.2 mph - N/A Rain Rain
8:35 AM 68.2 °F - 67.5 °F 98% 30.06 in 10.0 mi SW 9.2 mph - N/A Rain , Thunderstorm Light Thunderstorms and Rain
8:55 AM 68.5 °F - 67.5 °F 96% 30.08 in 10.0 mi West 11.5 mph 16.1 mph 0.01 in Rain , Thunderstorm Light Thunderstorms and Rain
9:15 AM 68.5 °F - 67.5 °F 96% 30.06 in 10.0 mi SSW 6.9 mph - N/A Rain Light Rain
9:35 AM 69.1 °F - 68.0 °F 96% 30.05 in 10.0 mi Calm Calm - N/A Thunderstorm Scattered Clouds
9:55 AM 69.8 °F - 68.2 °F 95% 30.05 in 10.0 mi WSW 8.1 mph - N/A   Scattered Clouds
10:15 AM 70.2 °F - 68.2 °F 93% 30.05 in 10.0 mi West 4.6 mph - N/A   Scattered Clouds
10:35 AM 70.7 °F - 68.5 °F 93% 30.04 in 10.0 mi SW 3.5 mph - N/A   Clear
10:55 AM 71.6 °F - 68.7 °F 91% 30.05 in 10.0 mi Calm Calm - N/A   Clear
11:15 AM 72.1 °F - 68.7 °F 89% 30.04 in 10.0 mi Calm Calm - N/A   Scattered Clouds
11:35 AM 73.6 °F - 69.4 °F 87% 30.04 in 10.0 mi Calm Calm - N/A   Clear
11:55 AM 75.7 °F - 70.2 °F 83% 30.03 in 10.0 mi SW 4.6 mph - N/A   Clear
12:15 PM 77.2 °F - 70.2 °F 79% 30.02 in 10.0 mi West 5.8 mph - N/A   Clear
12:35 PM 79.3 °F - 71.8 °F 78% 30.01 in 10.0 mi WSW 4.6 mph - N/A   Clear
12:55 PM 81.1 °F 85.6 °F 72.1 °F 74% 30.01 in 10.0 mi WSW 12.7 mph - N/A   Scattered Clouds
1:15 PM 82.4 °F 87.4 °F 72.1 °F 71% 30.00 in 10.0 mi WSW 10.4 mph - N/A   Scattered Clouds
1:35 PM 83.3 °F 89.0 °F 72.7 °F 70% 30.00 in 10.0 mi West 10.4 mph - N/A   Scattered Clouds
1:55 PM 83.3 °F 89.0 °F 72.5 °F 70% 30.00 in 10.0 mi WSW 6.9 mph - N/A   Scattered Clouds
2:15 PM 84.0 °F 90.2 °F 72.7 °F 69% 29.99 in 10.0 mi WSW 8.1 mph - N/A   Scattered Clouds
2:35 PM 84.7 °F 91.0 °F 72.9 °F 67% 29.99 in 10.0 mi WSW 8.1 mph - N/A   Scattered Clouds
2:55 PM 85.3 °F 92.2 °F 73.0 °F 67% 29.99 in 10.0 mi West 4.6 mph - N/A   Clear
3:15 PM 85.1 °F 91.8 °F 72.9 °F 67% 29.98 in 10.0 mi SW 6.9 mph - N/A   Scattered Clouds
3:35 PM 85.5 °F 92.2 °F 73.0 °F 66% 29.98 in 10.0 mi West 5.8 mph - N/A   Scattered Clouds
3:55 PM 85.6 °F 92.2 °F 72.9 °F 65% 29.98 in 10.0 mi West 3.5 mph - N/A   Clear
4:15 PM 85.6 °F 92.2 °F 72.5 °F 65% 29.98 in 10.0 mi Calm Calm - N/A   Clear
4:35 PM 85.8 °F 92.6 °F 72.9 °F 65% 29.97 in 10.0 mi NW 4.6 mph - N/A   Clear
4:55 PM 86.0 °F 92.6 °F 72.5 °F 64% 29.97 in 10.0 mi Calm Calm - N/A   Clear
5:15 PM 85.8 °F 92.6 °F 72.9 °F 65% 29.98 in 10.0 mi Calm Calm - N/A   Clear
5:35 PM 86.0 °F 93.4 °F 73.6 °F 66% 29.97 in 10.0 mi Calm Calm - N/A   Clear
5:55 PM 85.3 °F 92.2 °F 73.2 °F 67% 29.97 in 10.0 mi Calm Calm - N/A   Clear
6:15 PM 85.5 °F 93.0 °F 73.9 °F 68% 29.95 in 10.0 mi Calm Calm - N/A   Clear
6:35 PM 85.1 °F 92.9 °F 74.5 °F 70% 29.95 in 10.0 mi Calm Calm - N/A   Clear
6:55 PM 82.4 °F 89.2 °F 74.8 °F 78% 29.95 in 10.0 mi Calm Calm - N/A   Clear
7:15 PM 81.5 °F 87.2 °F 74.1 °F 78% 29.96 in 10.0 mi Calm Calm - N/A   Clear
7:35 PM 80.1 °F 84.6 °F 74.1 °F 82% 29.95 in 10.0 mi Calm Calm - N/A   Clear
7:55 PM 77.7 °F - 73.9 °F 88% 29.95 in 10.0 mi SE 3.5 mph - N/A   Clear
8:15 PM 77.4 °F - 74.5 °F 91% 29.96 in 10.0 mi Calm Calm - N/A   Clear
8:35 PM 77.5 °F - 74.5 °F 90% 29.95 in 10.0 mi Calm Calm - N/A   Scattered Clouds
8:55 PM 77.9 °F - 74.1 °F 88% 29.96 in 10.0 mi Calm Calm - N/A   Scattered Clouds
9:15 PM 77.5 °F - 74.3 °F 90% 29.95 in 10.0 mi SE 4.6 mph - N/A Rain Light Rain
9:35 PM 78.1 °F - 74.3 °F 88% 29.96 in 10.0 mi Calm Calm - N/A Rain Light Rain
9:55 PM 76.1 °F - 74.5 °F 95% 29.97 in 7.0 mi Calm Calm - N/A Rain Light Rain
10:15 PM 76.1 °F - 74.7 °F 95% 29.97 in 5.0 mi Calm Calm - N/A Rain , Thunderstorm Thunderstorms and Rain
10:35 PM 75.6 °F - 74.8 °F 98% 29.97 in 4.0 mi Calm Calm - 0.01 in Rain , Thunderstorm Rain
10:55 PM 75.6 °F - 75.4 °F 99% 29.97 in 3.0 mi West 3.5 mph - 0.02 in Rain Light Rain
11:15 PM 75.2 °F - 74.7 °F 98% 29.96 in 5.0 mi West 3.5 mph - N/A Rain , Thunderstorm Light Thunderstorms and Rain
11:35 PM 75.2 °F - 74.7 °F 98% 29.96 in 5.0 mi West 3.5 mph - N/A Rain , Thunderstorm Light Thunderstorms and Rain
11:55 PM 75.2 °F - 74.8 °F 99% 29.96 in 3.0 mi Calm Calm - N/A Rain , Thunderstorm Light Thunderstorms and Rain